ボアッティーニ彗星

C/2010 U3 ( Boattini )

English version
Home page
Updated on February 7, 2017

---------------------------------------------------------------------

・ プロフィール

発見日 2010年10月31日
発見光度 19.4等
発見者 A. Boattini (Mt. Lemmon)

・ 写真集

・ 軌道要素

Epoch 2019 Mar. 18.0 TT = JDT 2458560.5
T 2019 Feb. 26.64686 TT                                 MPCW
q   8.4455925            (2000.0)            P               Q
z  +0.0002000      Peri.   88.08648     -0.36204852     -0.74305605
 +/-0.0000011      Node    43.06727     +0.07255639     -0.62443408
e   0.9983110      Incl.   55.51182     +0.92933118     -0.24072760
From 465 observations 2009 Sept. 16-2016 Apr. 3, mean residual 0".6.

・ 星図

・ 光度変化

        m1 = 7.5 + 5 logΔ + 5.0 log r

---------------------------------------------------------------------

軌道要素はM.P.E.C. 2016-H35に掲載されたものです。
星図はステラナビゲータ Ver.8 (アストロアーツ) で作成したものです。
光度グラフはComet for Windowsで作成したものです。

---------------------------------------------------------------------

Copyright(C) Seiichi Yoshida (comet@aerith.net). All rights reserved.